• In Belarus
  • List of Countries
  • For 7 days
  • Water Temperature
  • Weather Map
  • Weather Widgets
  • user-avatar
    Login

    Hourly Weather San Luis

    Today, 20 January, Monday

    Time Temperature Precipitation Wind Pressure Humidity
    00:00 +30°C° 0 mm 3 mps 695 mmHg 50%
    01:00 +30°C° 0 mm 3 mps 695 mmHg 50%
    02:00 +30°C° 0 mm 4 mps 695 mmHg 50%
    03:00 +29°C° 0 mm 4 mps 695 mmHg 53%
    04:00 +29°C° 0 mm 4 mps 695 mmHg 56%
    05:00 +29°C° 0 mm 4 mps 695 mmHg 59%
    06:00 +30°C° 0 mm 4 mps 695 mmHg 56%
    07:00 +33°C° 0 mm 4 mps 696 mmHg 52%
    08:00 +34°C° 0 mm 4 mps 696 mmHg 49%
    09:00 +35°C° 0 mm 3 mps 696 mmHg 43%
    10:00 +37°C° 0 mm 3 mps 696 mmHg 38%
    11:00 +38°C° 0 mm 2 mps 697 mmHg 32%
    12:00 +39°C° 0 mm 2 mps 696 mmHg 30%
    13:00 +39°C° 0 mm 2 mps 696 mmHg 28%
    14:00 +40°C° 0 mm 2 mps 695 mmHg 26%
    15:00 +40°C° 0 mm 2 mps 695 mmHg 26%
    16:00 +40°C° 0 mm 3 mps 694 mmHg 26%
    17:00 +40°C° 0 mm 3 mps 693 mmHg 25%
    18:00 +38°C° 0.1 mm 4 mps 694 mmHg 32%
    19:00 +35°C° 0.1 mm 6 mps 694 mmHg 39%
    20:00 +33°C° 0.1 mm 7 mps 694 mmHg 45%
    21:00 +30°C° 1.5 mm 6 mps 695 mmHg 55%
    22:00 +28°C° 1.5 mm 5 mps 695 mmHg 65%
    23:00 +26°C° 1.5 mm 4 mps 696 mmHg 75%

    Tomorrow, 21 January, Tuesday

    Time Temperature Precipitation Wind Pressure Humidity
    00:00 +26°C° 0 mm 3 mps 696 mmHg 77%
    01:00 +25°C° 0 mm 3 mps 696 mmHg 78%
    02:00 +25°C° 0 mm 3 mps 696 mmHg 80%
    03:00 +25°C° 0 mm 2 mps 696 mmHg 80%
    04:00 +24°C° 0 mm 2 mps 696 mmHg 80%
    05:00 +24°C° 0 mm 2 mps 696 mmHg 80%
    06:00 +25°C° 0 mm 2 mps 696 mmHg 73%
    07:00 +27°C° 0 mm 2 mps 697 mmHg 67%
    08:00 +28°C° 0 mm 2 mps 698 mmHg 60%
    09:00 +30°C° 0 mm 2 mps 698 mmHg 53%
    10:00 +33°C° 0 mm 3 mps 698 mmHg 47%
    11:00 +35°C° 0 mm 4 mps 698 mmHg 41%
    12:00 +36°C° 0 mm 4 mps 698 mmHg 38%
    13:00 +37°C° 0 mm 5 mps 697 mmHg 35%
    14:00 +39°C° 0 mm 5 mps 697 mmHg 32%
    15:00 +39°C° 0 mm 5 mps 697 mmHg 31%
    16:00 +39°C° 0 mm 6 mps 696 mmHg 30%
    17:00 +39°C° 0 mm 6 mps 696 mmHg 29%
    18:00 +36°C° 0 mm 7 mps 696 mmHg 34%
    19:00 +34°C° 0 mm 7 mps 696 mmHg 39%
    20:00 +32°C° 0 mm 7 mps 696 mmHg 44%
    21:00 +30°C° 0 mm 7 mps 696 mmHg 47%
    22:00 +29°C° 0 mm 7 mps 697 mmHg 49%
    23:00 +28°C° 0 mm 6 mps 697 mmHg 52%

    Day after tomorrow, 22 January, Wednesday

    Time Temperature Precipitation Wind Pressure Humidity
    00:00 +28°C° 0 mm 6 mps 697 mmHg 52%
    01:00 +28°C° 0 mm 5 mps 697 mmHg 53%
    02:00 +27°C° 0 mm 5 mps 697 mmHg 53%
    03:00 +27°C° 0 mm 4 mps 697 mmHg 55%
    04:00 +26°C° 0 mm 4 mps 697 mmHg 56%
    05:00 +25°C° 0 mm 3 mps 697 mmHg 57%
    06:00 +27°C° 0 mm 3 mps 697 mmHg 54%
    07:00 +29°C° 0 mm 3 mps 698 mmHg 51%
    08:00 +30°C° 0 mm 3 mps 698 mmHg 48%
    09:00 +31°C° 0 mm 3 mps 698 mmHg 43%
    10:00 +34°C° 0 mm 2 mps 698 mmHg 38%
    11:00 +35°C° 0 mm 2 mps 699 mmHg 33%
    12:00 +35°C° 0 mm 1 mps 698 mmHg 29%
    13:00 +37°C° 0 mm 1 mps 698 mmHg 26%
    14:00 +39°C° 0 mm 1 mps 697 mmHg 22%
    15:00 +39°C° 0 mm 2 mps 697 mmHg 21%
    16:00 +39°C° 0 mm 2 mps 696 mmHg 20%
    17:00 +39°C° 0 mm 2 mps 696 mmHg 20%
    18:00 +37°C° 0 mm 3 mps 695 mmHg 24%
    19:00 +35°C° 0 mm 3 mps 695 mmHg 29%
    20:00 +33°C° 0 mm 4 mps 695 mmHg 33%
    21:00 +32°C° 0 mm 5 mps 695 mmHg 36%
    22:00 +32°C° 0 mm 6 mps 696 mmHg 38%
    23:00 +32°C° 0 mm 7 mps 696 mmHg 41%

    23 January, Thursday

    Time Temperature Precipitation Wind Pressure Humidity
    00:00 +31°C° 0 mm 8 mps 696 mmHg 40%
    01:00 +29°C° 0 mm 10 mps 696 mmHg 40%
    02:00 +29°C° 0 mm 11 mps 696 mmHg 40%
    03:00 +28°C° 0 mm 10 mps 696 mmHg 41%
    04:00 +28°C° 0 mm 10 mps 696 mmHg 42%
    05:00 +27°C° 0 mm 10 mps 696 mmHg 42%
    06:00 +28°C° 0 mm 10 mps 696 mmHg 41%
    07:00 +29°C° 0 mm 10 mps 697 mmHg 39%
    08:00 +31°C° 0 mm 10 mps 697 mmHg 38%
    09:00 +33°C° 0 mm 10 mps 697 mmHg 35%
    10:00 +34°C° 0 mm 10 mps 697 mmHg 32%
    11:00 +37°C° 0 mm 10 mps 697 mmHg 29%
    12:00 +38°C° 0 mm 9 mps 697 mmHg 27%
    13:00 +39°C° 0 mm 9 mps 697 mmHg 25%
    14:00 +39°C° 0 mm 8 mps 696 mmHg 23%
    15:00 +39°C° 0 mm 8 mps 696 mmHg 23%
    16:00 +39°C° 0 mm 7 mps 695 mmHg 23%
    17:00 +39°C° 0 mm 7 mps 694 mmHg 23%
    18:00 +36°C° 0 mm 6 mps 695 mmHg 25%
    19:00 +33°C° 0 mm 4 mps 695 mmHg 28%
    20:00 +30°C° 0 mm 3 mps 695 mmHg 31%
    21:00 +30°C° 0 mm 4 mps 695 mmHg 30%
    22:00 +29°C° 0 mm 4 mps 696 mmHg 29%
    23:00 +29°C° 0 mm 5 mps 697 mmHg 28%

    24 January, Friday

    Time Temperature Precipitation Wind Pressure Humidity
    00:00 +28°C° 0 mm 5 mps 696 mmHg 31%
    01:00 +28°C° 0 mm 4 mps 696 mmHg 33%
    02:00 +27°C° 0 mm 4 mps 696 mmHg 35%
    03:00 +26°C° 0 mm 4 mps 697 mmHg 38%
    04:00 +26°C° 0 mm 3 mps 697 mmHg 40%
    05:00 +25°C° 0 mm 3 mps 697 mmHg 43%
    06:00 +26°C° 0 mm 3 mps 698 mmHg 40%
    07:00 +28°C° 0 mm 3 mps 698 mmHg 38%
    08:00 +29°C° 0 mm 3 mps 699 mmHg 35%
    09:00 +31°C° 0 mm 3 mps 699 mmHg 32%
    10:00 +33°C° 0 mm 4 mps 699 mmHg 29%
    11:00 +35°C° 0 mm 4 mps 699 mmHg 26%
    12:00 +36°C° 0 mm 4 mps 699 mmHg 24%
    13:00 +37°C° 0 mm 4 mps 698 mmHg 22%
    14:00 +38°C° 0 mm 4 mps 698 mmHg 21%
    15:00 +38°C° 0 mm 3 mps 697 mmHg 20%
    16:00 +38°C° 0 mm 2 mps 696 mmHg 20%
    17:00 +38°C° 0 mm 2 mps 696 mmHg 20%
    18:00 +36°C° 0 mm 2 mps 696 mmHg 24%
    19:00 +33°C° 0 mm 1 mps 696 mmHg 28%
    20:00 +31°C° 0 mm 1 mps 696 mmHg 32%
    21:00 +30°C° 0 mm 2 mps 696 mmHg 32%
    22:00 +29°C° 0 mm 3 mps 696 mmHg 31%
    23:00 +29°C° 0 mm 3 mps 697 mmHg 31%

    25 January, Saturday

    Time Temperature Precipitation Wind Pressure Humidity
    00:00 +28°C° 0 mm 4 mps 696 mmHg 31%
    01:00 +28°C° 0 mm 4 mps 696 mmHg 31%
    02:00 +27°C° 0 mm 5 mps 696 mmHg 31%
    03:00 +27°C° 0 mm 4 mps 696 mmHg 31%
    04:00 +27°C° 0 mm 4 mps 697 mmHg 31%
    05:00 +26°C° 0 mm 4 mps 697 mmHg 32%
    06:00 +28°C° 0 mm 3 mps 697 mmHg 30%
    07:00 +30°C° 0 mm 3 mps 698 mmHg 28%
    08:00 +33°C° 0 mm 3 mps 698 mmHg 26%
    09:00 +34°C° 0 mm 3 mps 698 mmHg 24%
    10:00 +36°C° 0 mm 2 mps 699 mmHg 23%
    11:00 +37°C° 0 mm 2 mps 699 mmHg 21%
    12:00 +38°C° 0 mm 2 mps 698 mmHg 20%
    13:00 +39°C° 0 mm 2 mps 697 mmHg 19%
    14:00 +40°C° 0 mm 2 mps 697 mmHg 18%
    15:00 +39°C° 0 mm 3 mps 696 mmHg 19%
    16:00 +39°C° 0 mm 3 mps 696 mmHg 19%
    17:00 +39°C° 0 mm 3 mps 695 mmHg 19%
    18:00 +37°C° 0 mm 3 mps 695 mmHg 22%
    19:00 +35°C° 0 mm 3 mps 695 mmHg 25%
    20:00 +33°C° 0 mm 4 mps 695 mmHg 28%
    21:00 +32°C° 0.2 mm 4 mps 695 mmHg 32%
    22:00 +29°C° 0.2 mm 5 mps 695 mmHg 36%
    23:00 +28°C° 0.2 mm 6 mps 696 mmHg 40%
    Show more